Location: Sternwarte ZA, Rosenfeld-Brittheim
(48.2889°N, 8.6789°E)
Time: 00:44:25
(UTC+01:00)

ISS - Pass Details

Date: 05 December 2021
Orbit: 413 x 422 km, 51.6° (Epoch: 24 January)

Event Time Altitude Azimuth Distance (km) Brightness Sun altitude
Rises 17:02:42 0° 290° (WNW) 2,387 0.8 -5.3°
Reaches altitude 10° 17:04:50 10° 293° (WNW) 1,519 -0.3 -5.6°
Maximum altitude 17:08:13 66° 17° (NNE) 467 -3.7 -6.1°
Drops below altitude 10° 17:11:36 10° 100° (E) 1,509 -1.4 -6.6°
Enters shadow 17:12:57 - 103° (ESE) 2,061 -0.7 -6.8°
